Wind_Speed
9 6 0 3 3 1 3 2 2 4 2 2 6 5 7 11 8 3 4 20 24 38 37 38 40 39 38 36 34 33 33 31 29 27 25 24 23 21 19 17 16 14 12 12 11 11 11 11 10
7 2 3 3 3 5 4 2 6 3 5 10 9 5 7 8 15 18 2 20 27 37 41 35 41 41 39 38 36 34 33 31 30 29 27 25 24 22 20 18 16 14 13 12 12 11 11 11 10
3 3 2 2 3 9 2 4 7 4 12 3 5 4 5 4 6 6 4 26 32 34 37 37 42 41 39 37 37 35 34 32 31 29 28 25 23 21 20 18 16 15 14 13 12 11 10 10 9
1 2 2 4 10 2 3 2 7 9 5 4 6 10 4 3 15 11 8 25 33 34 35 40 42 41 39 38 37 36 34 34 32 29 27 25 23 21 19 18 17 15 14 13 12 10 9 8 8
2 2 3 4 6 2 5 6 8 11 9 7 9 10 8 19 22 12 10 26 32 33 33 38 43 42 40 39 37 36 35 34 32 30 27 25 23 21 20 19 17 15 14 13 12 10 9 8 8
2 1 5 9 14 4 4 7 4 5 7 8 10 11 3 20 20 9 9 24 30 31 29 34 43 42 41 39 38 37 35 34 32 30 28 26 23 22 21 19 17 15 15 14 13 13 11 11 10
5 4 12 11 12 7 3 4 2 3 10 4 10 7 6 22 14 6 6 15 25 29 30 30 38 42 42 40 39 38 36 34 32 30 27 25 24 23 21 20 18 15 15 14 14 13 12 11 10
3 4 11 10 14 12 3 4 1 3 3 6 8 5 9 20 9 3 4 9 19 23 27 30 30 31 32 34 40 38 36 34 32 30 27 25 24 23 21 20 18 16 15 14 14 13 12 11 11
4 7 12 18 16 9 2 2 1 3 9 4 2 7 13 18 4 2 4 8 13 19 22 25 28 29 29 28 31 38 36 34 32 30 28 26 22 22 21 21 19 17 16 15 15 14 12 11 11
8 10 17 7 9 11 8 6 8 6 11 11 8 10 14 15 9 8 6 11 14 18 20 22 23 25 26 25 24 29 29 27 26 25 24 23 19 18 17 17 19 18 17 15 15 15 13 12 10
6 12 8 7 10 11 14 9 4 8 17 7 13 17 17 14 10 7 8 10 15 18 18 19 22 24 25 24 22 23 25 24 24 26 25 22 20 18 18 14 16 17 17 13 14 14 14 14 11
7 5 11 14 12 5 7 3 7 11 18 11 11 17 10 14 13 9 9 6 10 18 20 19 21 26 28 24 26 25 24 29 28 28 28 25 24 22 19 16 15 15 14 14 14 14 14 14 12
7 3 4 6 9 8 7 15 15 15 13 16 9 12 14 10 11 12 6 7 4 12 19 29 29 33 33 33 26 28 31 32 33 29 30 28 23 24 21 18 16 16 15 15 14 14 13 14 12
1 2 6 7 10 6 9 17 9 8 5 10 13 13 6 4 7 8 8 5 7 9 14 24 36 37 38 39 38 35 34 32 31 28 31 32 27 23 19 17 16 17 17 16 15 14 14 14 13
1 6 8 11 12 12 11 17 22 2 6 13 10 7 4 5 6 7 6 8 8 8 16 14 30 37 42 44 39 39 39 37 33 31 31 30 29 27 23 19 18 19 18 19 18 17 15 14 12
1 2 4 3 2 5 12 14 2 8 1 6 7 5 6 5 5 7 9 8 12 12 10 10 9 23 34 40 46 46 40 39 38 36 33 33 30 28 26 22 22 18 20 19 18 14 14 14 12
1 3 3 2 5 4 3 5 3 7 9 10 7 6 5 7 5 7 8 12 14 13 14 5 15 19 28 36 39 42 38 43 40 34 35 33 31 27 26 21 26 16 20 22 20 17 16 13 12
1 2 2 5 2 7 7 8 12 10 9 9 9 8 5 4 5 8 11 13 17 17 13 11 9 13 16 23 28 27 24 35 35 38 38 32 29 24 21 22 25 15 21 25 25 21 15 12 11
3 4 5 5 2 9 11 13 13 15 13 12 10 9 7 6 5 10 13 13 15 17 19 16 11 9 8 16 16 18 24 28 33 38 37 33 27 19 21 16 16 16 33 34 24 21 16 13 10
5 5 7 7 5 8 14 19 17 14 14 14 13 8 8 5 8 10 12 12 16 19 21 21 18 15 9 10 15 16 14 18 25 21 26 32 29 28 21 19 29 41 32 25 25 23 14 12 13
6 8 4 5 7 9 12 13 3 4 7 6 3 5 5 8 8 9 10 14 18 20 25 26 25 22 17 13 14 17 18 16 13 20 24 35 34 39 35 26 39 37 32 22 27 24 20 12 13
7 5 3 4 6 8 6 9 12 9 2 4 2 5 5 7 6 7 9 15 18 21 21 24 28 25 21 15 13 19 21 22 22 23 26 32 36 43 41 39 40 44 28 28 25 22 20 14 13
2 2 2 5 11 10 13 7 3 3 6 5 6 2 6 7 6 7 10 14 18 19 22 24 27 28 26 22 16 18 22 25 25 21 24 29 31 37 33 31 42 38 29 28 23 20 23 20 17
3 2 7 1 3 6 3 5 4 4 5 7 10 6 10 5 6 9 13 14 17 18 20 22 24 29 29 27 23 20 24 26 23 22 25 25 30 32 37 35 38 32 27 24 22 20 20 20 18
2 4 4 3 4 3 5 8 11 7 7 11 13 13 12 9 10 10 13 14 17 20 22 22 21 24 28 29 26 25 27 29 27 31 26 21 20 22 33 38 35 29 28 20 18 19 17 19 19
3 3 4 5 4 5 5 9 2 5 7 11 9 7 9 11 10 11 11 13 16 20 22 24 25 24 25 28 32 30 29 26 27 33 30 29 28 27 31 38 34 28 20 17 17 16 17 17 19
3 6 2 6 8 7 6 8 10 10 4 3 1 6 12 13 11 10 10 15 17 18 21 25 23 24 27 28 28 30 30 28 28 33 34 35 32 26 32 33 28 23 16 16 17 18 18 17 20
8 7 3 3 4 6 6 13 9 10 9 3 10 10 13 16 14 10 9 12 17 20 19 23 23 24 26 28 28 29 29 30 32 33 33 31 31 29 29 26 24 16 16 17 18 18 16 16 17
6 8 5 3 4 4 6 5 3 5 9 9 8 12 17 18 11 11 12 15 16 19 22 23 24 26 26 27 28 27 30 32 31 31 31 30 28 29 29 25 20 18 18 20 20 18 17 18 21
8 10 13 7 6 5 6 9 10 13 7 8 16 20 14 13 13 13 13 16 17 19 23 24 26 28 28 30 30 31 29 30 29 28 27 25 26 26 25 23 20 19 22 23 22 19 18 20 24
Wind_Direction
357 326 55 54 230 273 248 191 276 205 202 234 291 242 244 279 216 238 357 188 168 165 168 173 177 177 173 170 169 167 167 168 169 169 168 167 167 168 169 166 161 160 157 156 153 149 144 141 135
4 9 333 112 245 235 229 220 204 258 314 308 287 232 249 261 238 265 248 173 172 167 170 172 179 181 179 175 174 172 171 171 170 169 168 168 169 170 168 167 163 162 161 157 152 148 143 140 136
38 29 259 181 195 237 224 210 227 315 309 262 299 275 275 325 342 287 351 173 167 168 169 174 180 183 183 180 177 175 173 172 171 170 169 170 171 171 171 170 167 166 162 158 155 153 147 143 141
169 71 81 235 229 225 252 347 225 314 323 248 331 297 301 12 320 295 295 172 164 171 170 177 182 186 186 185 180 177 174 173 172 173 171 173 174 177 175 177 174 168 165 165 162 161 153 149 151
71 121 243 244 252 219 237 269 277 297 294 299 338 320 313 345 326 315 190 173 167 172 171 176 183 187 189 188 184 181 178 177 177 177 177 179 180 181 183 184 182 175 173 174 172 170 163 164 170
166 132 233 245 249 207 229 245 294 298 292 313 334 323 350 351 347 346 181 174 169 171 172 173 184 188 192 191 189 186 184 182 183 183 182 185 186 187 188 191 191 186 184 185 183 181 182 181 188
241 195 236 249 260 251 246 172 279 281 298 324 340 307 326 0 348 359 174 179 173 173 171 176 182 189 193 195 194 192 190 189 190 190 190 192 194 196 195 197 197 196 198 198 198 192 193 195 195
201 244 230 230 252 258 238 184 350 283 325 325 346 342 334 347 345 7 170 172 178 176 176 177 180 188 193 198 197 197 196 196 197 198 199 200 204 204 200 202 205 207 209 211 211 207 207 208 206
154 233 239 234 240 253 230 302 138 285 284 299 284 310 324 344 342 327 188 191 192 185 185 185 185 188 192 198 202 201 201 203 205 205 205 206 208 212 208 208 211 215 217 221 223 225 220 218 220
201 229 235 222 235 237 252 273 294 293 286 292 284 305 325 340 346 341 254 211 210 207 197 193 192 195 193 196 201 202 203 205 209 209 210 208 213 213 211 211 216 221 228 228 233 232 230 222 222
196 236 228 236 222 243 237 264 276 277 282 296 310 317 324 325 329 312 306 233 218 217 214 207 201 202 202 199 204 205 203 204 209 213 213 209 216 220 220 214 217 222 227 225 229 231 226 226 222
237 234 240 249 265 258 245 289 248 256 266 296 301 298 301 323 319 317 301 277 219 214 219 217 213 213 213 209 212 211 210 210 214 218 219 218 220 224 220 218 217 223 221 225 226 232 230 232 231
237 235 264 257 277 275 297 253 254 269 273 280 290 300 304 309 316 326 302 298 279 234 226 227 225 225 222 220 219 217 219 220 219 220 223 224 224 228 226 226 226 230 229 231 232 234 237 241 238
180 254 271 282 261 244 249 264 270 249 330 299 290 299 318 3 345 322 338 318 296 311 258 238 231 230 228 227 227 227 227 228 228 225 228 227 229 237 232 233 240 246 245 237 236 237 236 239 239
309 270 263 246 247 242 230 256 253 163 234 276 303 291 318 15 355 3 349 352 336 295 304 256 248 236 229 228 232 234 232 231 236 235 235 236 234 240 238 238 244 255 257 253 245 241 238 238 238
251 237 248 135 255 242 211 241 36 25 358 275 314 305 336 340 335 353 357 4 0 6 345 335 276 250 240 232 234 235 232 236 237 241 241 241 241 241 246 243 254 257 265 262 252 238 236 236 233
110 222 234 204 53 1 225 273 13 347 333 307 311 298 310 316 337 348 347 343 347 358 360 343 322 251 244 244 238 235 232 238 240 242 244 243 242 244 245 257 263 288 275 270 260 233 230 233 233
211 260 264 278 9 334 299 278 305 304 283 272 291 288 275 287 300 323 327 335 335 337 346 15 328 329 277 253 246 242 237 236 238 241 246 246 240 239 252 262 253 289 270 262 254 245 230 227 233
243 238 251 279 273 323 300 296 290 279 267 248 245 258 269 268 285 317 321 327 331 330 334 340 342 337 270 237 233 234 235 241 235 238 242 239 232 242 249 241 259 258 255 251 243 244 233 222 215
213 233 249 273 286 312 306 301 293 276 256 249 241 217 259 259 315 312 321 326 327 323 328 328 328 326 307 253 243 237 233 240 240 240 226 229 229 210 217 253 244 239 244 236 236 228 225 218 202
223 233 230 282 318 292 316 294 251 221 284 220 246 272 282 291 303 314 327 327 330 328 329 325 323 321 314 296 262 246 242 244 238 233 225 225 226 216 240 211 225 248 236 228 226 223 218 208 204
253 188 221 264 302 306 350 288 290 280 244 223 268 313 315 296 305 316 333 334 335 326 324 324 323 319 313 309 272 242 239 240 232 230 229 220 222 219 239 222 233 240 228 219 220 222 218 202 205
140 212 239 278 288 303 266 254 283 218 235 185 347 309 321 326 332 332 334 335 326 328 323 320 320 316 312 307 287 259 246 244 246 239 232 222 223 227 227 235 231 225 220 220 221 219 217 213 209
123 180 291 249 255 251 223 242 197 215 219 230 301 293 322 337 349 342 337 334 327 325 321 318 315 315 314 309 298 272 255 245 241 234 233 222 220 223 229 224 219 218 218 218 225 225 220 210 210
148 343 306 258 206 273 137 289 254 226 226 264 304 309 323 324 336 336 335 334 335 332 328 319 311 299 309 306 296 281 262 253 236 234 228 223 218 211 214 211 214 215 218 223 223 220 209 208 207
288 234 261 280 257 297 231 249 216 194 264 285 288 318 334 344 341 326 325 327 331 331 330 323 308 295 301 302 295 287 273 251 246 238 232 226 226 227 231 219 212 211 213 219 220 210 204 202 204
138 214 345 259 254 271 241 259 261 259 229 293 352 350 351 339 329 324 323 326 330 334 332 327 313 298 300 298 290 283 275 257 244 239 235 232 228 216 224 216 208 202 210 215 206 202 192 195 208
227 144 198 194 250 256 259 278 257 284 297 304 322 322 329 332 326 319 323 324 324 326 330 332 323 309 307 301 292 281 270 254 240 234 229 223 220 221 217 206 202 196 205 199 191 192 185 189 201
197 216 205 252 227 264 296 264 271 269 298 302 313 326 323 325 328 312 318 316 317 322 322 329 328 316 316 309 299 286 272 252 238 230 227 222 217 220 215 205 199 197 193 189 188 187 187 189 199
236 238 215 229 216 236 275 271 284 277 296 311 309 314 318 308 311 305 305 308 312 318 319 320 323 320 313 311 306 297 277 251 235 225 222 215 210 212 200 201 195 188 187 185 184 186 184 185 193
Height
778 779 777 776 789 792 796 790 788 782 776 763 761 766 763 757 760 764 735 735 740 741 750 758 764 769 771 774 776 778 781 783 786 789 792 794 796 799 802 804 805 807 809 810 811 811 811 811 812
779 779 779 778 794 799 790 788 787 775 769 763 759 759 762 757 743 732 733 736 740 741 748 756 762 767 770 772 775 777 780 783 785 787 790 794 796 799 801 803 805 807 809 811 812 812 812 813 813
779 780 781 783 794 795 792 782 776 772 765 766 761 753 751 750 740 735 734 733 739 745 749 754 761 767 771 773 774 776 779 782 785 788 791 794 797 799 801 803 804 806 809 810 812 813 814 814 814
780 781 785 791 791 793 787 776 774 773 761 761 761 762 747 747 743 737 735 736 737 745 748 753 760 766 770 773 774 776 779 782 785 788 790 794 796 799 801 803 806 806 808 810 811 813 814 815 817
779 782 792 794 790 788 780 771 767 771 767 762 761 761 754 745 740 734 732 736 740 746 748 753 760 765 770 773 776 778 780 782 785 787 790 793 796 798 801 803 804 805 806 808 810 812 813 816 817
779 783 796 796 787 782 775 766 767 768 763 761 759 760 751 747 740 737 737 737 740 745 751 754 760 766 771 773 776 777 779 782 784 787 789 792 795 797 799 801 804 804 806 807 808 808 810 811 814
780 783 788 790 789 784 774 763 767 766 764 762 757 761 751 744 744 741 742 743 742 744 748 754 757 763 768 773 776 778 779 781 784 786 788 792 794 795 796 799 802 804 805 806 808 808 809 810 811
777 779 783 784 788 784 767 765 762 765 764 758 756 763 759 749 747 744 745 746 747 747 749 752 757 764 768 772 774 777 780 782 785 787 789 791 795 796 796 800 802 804 805 806 807 807 809 810 811
774 783 782 778 780 775 765 767 761 759 761 760 757 756 755 752 751 748 747 749 751 749 751 754 757 761 766 772 773 775 779 783 785 786 788 791 795 796 796 797 801 804 803 805 807 807 807 808 809
773 776 774 768 766 769 766 766 766 764 760 760 759 755 754 751 750 748 746 746 750 751 751 753 758 762 765 769 773 775 777 780 784 785 787 789 794 796 797 797 800 802 803 804 805 806 807 807 809
769 771 770 766 760 758 757 763 763 765 762 758 761 755 750 748 748 745 745 744 745 750 752 751 754 758 763 766 771 774 775 777 780 782 784 786 791 794 796 796 798 800 801 804 804 806 806 806 805
775 768 765 763 759 760 761 759 766 763 756 756 755 754 751 746 744 743 741 741 743 746 750 752 753 755 760 763 765 769 772 772 774 777 780 783 785 790 792 792 795 798 800 801 801 804 803 804 803
775 769 767 763 762 760 759 760 762 760 755 754 753 751 749 744 745 741 741 739 740 743 746 747 751 752 756 759 762 764 765 767 769 772 775 779 782 786 788 790 793 795 796 797 797 799 801 802 800
771 769 767 764 761 760 760 754 758 753 752 752 752 748 748 743 743 742 740 739 739 740 744 745 745 747 750 754 757 758 762 764 766 767 770 772 777 784 786 789 791 794 794 793 794 795 796 796 796
770 773 767 764 760 758 753 758 754 755 750 751 748 746 746 744 744 744 744 739 738 736 740 740 742 744 743 746 753 755 756 758 762 764 766 770 773 779 782 784 786 790 792 793 791 788 790 791 791
773 775 772 762 760 756 757 757 757 755 755 750 752 748 744 743 743 741 741 740 738 735 734 733 737 740 741 743 745 747 750 754 756 758 762 765 769 773 779 781 780 782 788 790 792 788 788 788 787
776 774 774 767 762 759 758 758 756 754 754 752 748 748 744 742 740 740 739 738 737 736 734 724 736 742 741 739 741 740 743 748 749 753 756 759 765 768 775 778 781 780 785 790 793 783 784 784 784
777 776 773 770 764 759 758 760 754 753 755 753 748 746 746 741 738 737 737 736 734 733 736 733 735 730 734 737 736 739 740 739 741 745 748 755 759 765 772 775 776 777 781 784 787 787 781 779 781
775 776 774 767 761 763 758 757 754 749 747 748 747 745 740 740 736 736 735 735 733 731 729 730 734 734 734 735 733 732 731 735 733 736 738 746 752 759 764 764 770 775 771 773 779 784 779 774 775
775 774 770 766 763 764 756 753 745 739 739 739 740 740 739 739 736 735 733 733 732 730 727 725 726 726 728 728 725 727 726 727 731 733 733 735 743 748 745 745 758 759 765 766 773 776 774 771 771
771 772 773 773 767 760 758 741 742 736 735 735 735 737 738 739 736 735 731 731 730 727 723 720 718 719 721 722 723 723 724 724 724 725 726 724 734 737 736 736 743 755 758 758 765 767 766 765 766
771 768 770 772 772 770 765 755 740 738 736 737 736 734 735 735 735 735 733 733 731 727 723 719 714 713 713 715 717 717 717 717 713 716 719 721 722 727 728 732 739 747 750 753 755 757 758 759 762
768 768 770 771 768 771 758 768 741 742 737 735 734 734 733 732 733 734 734 733 730 726 723 718 714 709 709 711 712 714 713 711 710 711 713 713 718 722 724 728 735 737 743 744 745 748 748 751 755
767 768 766 776 771 767 757 762 742 737 733 733 728 731 731 732 733 732 733 730 727 724 721 716 711 703 701 705 704 705 704 704 703 705 708 706 709 713 718 722 727 731 732 733 737 739 742 746 750
766 770 772 767 765 754 761 760 739 733 731 731 730 727 727 729 729 730 729 725 724 721 718 716 712 706 703 699 699 698 697 696 694 697 699 701 702 706 708 712 716 722 724 725 728 732 737 741 745
767 769 771 775 765 754 759 749 732 730 728 728 728 730 727 726 727 728 727 726 722 717 715 712 708 705 702 696 692 691 689 687 686 688 688 691 693 698 704 705 708 712 714 717 722 728 733 737 740
769 772 770 771 766 770 745 734 732 721 726 727 727 727 727 726 725 724 722 719 716 715 713 708 705 701 697 692 687 682 677 676 675 678 678 681 684 691 696 698 702 702 705 711 717 724 725 730 738
763 765 774 774 773 763 737 736 729 725 724 727 726 724 724 722 719 718 717 716 713 708 706 704 700 695 691 685 680 674 671 668 670 672 670 672 676 683 688 693 698 695 701 708 714 720 720 726 734
765 764 769 768 768 761 751 727 722 723 721 726 725 724 721 718 716 714 712 711 708 704 699 695 693 690 686 680 673 667 662 660 660 660 660 665 670 674 680 687 687 690 698 706 711 715 717 722 730
754 756 758 765 766 762 756 732 715 718 720 723 720 717 717 716 711 708 707 705 703 701 696 689 685 682 678 673 666 659 654 652 651 649 652 657 662 667 673 680 681 687 695 701 705 711 713 719 726